Weather History for KMTC - March, 2013

Change the Weather History Date:

Tuesday, March 12, 2013

  Actual Average Record
Temperature  
Mean Temperature 35 °F -  
Max Temperature 38 °F 41 °F 76 °F (1990)
Min Temperature 31 °F 25 °F 6 °F (1984)
Degree Days  
Heating Degree Days 30    
Moisture  
Dew Point 29 °F    
Average Humidity 78    
Maximum Humidity 87    
Minimum Humidity 65    
Precipitation  
Precipitation 0.01 in - - ()
Sea Level Pressure  
Sea Level Pressure 29.83 in    
Wind  
Wind Speed 13 mph (WSW)    
Max Wind Speed 17 mph    
Max Gust Speed 22 mph    
Visibility 8 miles    
Events Snow    
Averages and records for this station are not official NWS values.
T = Trace of Precipitation, MM = Missing Value Source: NWS Daily Summary

Daily Weather History Graph

Daily Weather History Graph

Search for Another Location

Airport or City:

Trip Planner

Search our weather history database for the weather conditions in past years. The results will help you decide how hot, cold, wet, or windy it might be!

Date:

Astronomy

Mar. 12, 2013 Rise Set
Actual Time 7:48 AM EDT 7:34 PM EDT
Civil Twilight 7:20 AM EDT 8:02 PM EDT
Nautical Twilight 6:47 AM EDT 8:35 PM EDT
Astronomical Twilight 6:14 AM EDT 9:08 PM EDT
Moon 7:52 AM EDT (3/12) 8:51 PM EDT (3/12)
Length of Visible Light 12h 42m
Length of Day
11h 46m
New Moon, 1% of the Moon is Illuminated
Mar 12
New Moon
Mar 19
First Quarter
Mar 27
Full
Apr 3
Last Quarter
Apr 10
New

Hourly Weather History & Observations

Time (EDT) Temp. Windchill Dew Point Humidity Pressure Visibility Wind Dir Wind Speed Gust Speed Precip Events Conditions
12:55 AM 38.5 °F 29.9 °F 32.2 °F 78% 29.70 in 10.0 mi SW 15.0 mph - N/A   Overcast
1:55 AM 38.3 °F 30.9 °F 32.2 °F 79% 29.72 in 10.0 mi SW 11.5 mph 19.6 mph N/A   Overcast
2:55 AM 38.1 °F 30.2 °F 32.0 °F 79% 29.74 in 10.0 mi SW 12.7 mph - N/A   Overcast
3:29 AM 37.4 °F 28.5 °F 32.0 °F 81% 29.74 in 10.0 mi WSW 15.0 mph - N/A   Overcast
3:55 AM 37.2 °F 29.1 °F 32.5 °F 83% 29.75 in 10.0 mi WSW 12.7 mph 21.9 mph 0.00 in   Light Drizzle
3:56 AM 37.4 °F 28.9 °F 32.0 °F 81% 29.75 in 10.0 mi WSW 13.8 mph 21.9 mph N/A   Overcast
4:55 AM 37.4 °F 30.3 °F 32.0 °F 81% 29.75 in 12.0 mi WSW 10.4 mph - N/A   Overcast
5:55 AM 37.4 °F 29.8 °F 30.2 °F 75% 29.77 in 12.0 mi WSW 11.5 mph 19.6 mph N/A   Overcast
6:55 AM 35.6 °F 27.1 °F 30.2 °F 81% 29.78 in 12.0 mi WSW 12.7 mph 18.4 mph N/A   Overcast
7:08 AM 35.6 °F 26.6 °F 28.4 °F 75% 29.75 in 12.0 mi WSW 13.8 mph - N/A   Overcast
7:55 AM 35.6 °F 27.1 °F 30.2 °F 81% 29.80 in 12.0 mi SW 12.7 mph - N/A   Overcast
8:39 AM 35.6 °F 28.6 °F 30.2 °F 81% 29.78 in 5.0 mi West 9.2 mph - N/A Snow Light Snow
8:55 AM 35.6 °F 29.2 °F 30.2 °F 81% 29.82 in 6.0 mi WSW 8.1 mph - N/A Snow Light Snow
9:05 AM 35.6 °F 28.0 °F 30.2 °F 81% 29.79 in 10.0 mi WSW 10.4 mph - N/A   Overcast
9:12 AM 35.6 °F 28.6 °F 30.2 °F 81% 29.79 in 10.0 mi WSW 9.2 mph 17.3 mph N/A   Overcast
9:38 AM 35.6 °F 29.2 °F 30.2 °F 81% 29.79 in 12.0 mi WSW 8.1 mph - N/A   Overcast
9:55 AM 35.6 °F 26.2 °F 28.4 °F 75% 29.83 in 12.0 mi WSW 15.0 mph - N/A   Overcast
10:43 AM 37.4 °F 28.5 °F 28.4 °F 70% 29.80 in 10.0 mi WSW 15.0 mph 21.9 mph N/A Snow Light Snow
10:50 AM 35.6 °F 25.9 °F 28.4 °F 75% 29.81 in 10.0 mi WSW 16.1 mph - N/A   Overcast
10:55 AM 35.6 °F 26.6 °F 28.4 °F 75% 29.85 in 10.0 mi WSW 13.8 mph - N/A   Overcast
11:43 AM 37.4 °F 28.2 °F 30.2 °F 75% 29.81 in 10.0 mi WSW 16.1 mph 19.6 mph N/A Snow Light Snow
11:55 AM 37.4 °F 29.8 °F 30.2 °F 75% 29.85 in 10.0 mi SW 11.5 mph 20.7 mph N/A Snow Light Snow
12:06 PM 37.4 °F 29.3 °F 30.2 °F 75% 29.81 in 10.0 mi WSW 12.7 mph 20.7 mph N/A Snow Light Snow
12:29 PM 37.4 °F 28.5 °F 32.0 °F 81% 29.81 in 10.0 mi West 15.0 mph - N/A Snow Light Snow
12:39 PM 35.6 °F 25.9 °F 32.0 °F 87% 29.81 in 5.0 mi West 16.1 mph - N/A Snow Light Snow
12:46 PM 35.6 °F 25.5 °F 30.2 °F 81% 29.81 in 3.0 mi West 17.3 mph - N/A Snow Light Snow
12:49 PM 35.6 °F 26.2 °F 30.2 °F 81% 29.82 in 2.5 mi West 15.0 mph - N/A Snow Light Snow
12:51 PM 35.6 °F 27.5 °F 30.2 °F 81% 29.82 in 1.5 mi West 11.5 mph - N/A Snow Light Snow
12:55 PM 33.8 °F 24.3 °F 30.2 °F 87% 29.86 in 1.5 mi West 13.8 mph - N/A Snow Light Snow
12:57 PM 33.8 °F 24.8 °F 30.2 °F 87% 29.82 in 3.0 mi West 12.7 mph - N/A Snow Light Snow
1:06 PM 35.6 °F 28.6 °F 30.2 °F 81% 29.81 in 1.5 mi West 9.2 mph - N/A Snow Light Snow
1:10 PM 35.6 °F 28.0 °F 30.2 °F 81% 29.81 in 1.8 mi WSW 10.4 mph - N/A Snow Light Snow
1:15 PM 35.6 °F 28.0 °F 30.2 °F 81% 29.82 in 1.5 mi West 10.4 mph - N/A Snow Light Snow
1:33 PM 35.6 °F 27.5 °F 30.2 °F 81% 29.82 in 3.0 mi WSW 11.5 mph - N/A Snow Light Snow
1:55 PM 35.6 °F 26.6 °F 32.0 °F 87% 29.86 in 5.0 mi West 13.8 mph - N/A Snow Light Snow
2:55 PM 37.4 °F 30.8 °F 30.2 °F 75% 29.86 in 7.0 mi West 9.2 mph - N/A Snow Light Snow
3:20 PM 37.4 °F 28.2 °F 28.4 °F 70% 29.81 in 7.0 mi SW 16.1 mph - N/A   Overcast
3:55 PM 35.6 °F 26.6 °F 28.4 °F 75% 29.85 in 7.0 mi SW 13.8 mph - N/A Snow Light Snow
4:30 PM 35.6 °F 25.9 °F 28.4 °F 75% 29.82 in 7.0 mi WSW 16.1 mph - N/A   Overcast
4:55 PM 35.6 °F 27.1 °F 28.4 °F 75% 29.87 in 10.0 mi SW 12.7 mph 20.7 mph N/A   Overcast
5:49 PM 35.6 °F 28.0 °F 26.6 °F 70% 29.83 in 5.0 mi WSW 10.4 mph - N/A Snow Light Snow
5:55 PM 35.6 °F 26.2 °F 26.6 °F 70% 29.88 in 5.0 mi WSW 15.0 mph 18.4 mph N/A Snow Light Snow
6:47 PM 35.6 °F 28.6 °F 24.8 °F 65% 29.85 in 7.0 mi WSW 9.2 mph - N/A   Overcast
6:55 PM 35.6 °F 27.5 °F 26.6 °F 70% 29.90 in 7.0 mi WSW 11.5 mph - N/A   Overcast
7:55 PM 33.8 °F 25.8 °F 24.8 °F 70% 29.91 in 10.0 mi WSW 10.4 mph - N/A   Overcast
8:55 PM 33.8 °F 26.4 °F 26.6 °F 75% 29.93 in 12.0 mi SW 9.2 mph - N/A   Overcast
9:35 PM 33.8 °F 25.8 °F 26.6 °F 75% 29.88 in 12.0 mi WSW 10.4 mph - N/A Snow Light Snow
9:55 PM 32.0 °F 23.6 °F 26.6 °F 80% 29.93 in 12.0 mi WSW 10.4 mph - N/A Snow Light Snow
10:32 PM 32.0 °F 24.8 °F 26.6 °F 80% 29.88 in 12.0 mi WSW 8.1 mph - N/A   Mostly Cloudy
10:55 PM 32.0 °F 24.2 °F 26.6 °F 80% 29.93 in 12.0 mi WSW 9.2 mph - N/A   Mostly Cloudy
11:13 PM 32.0 °F 24.8 °F 26.6 °F 80% 29.93 in 10.0 mi WSW 8.1 mph - N/A   Mostly Cloudy
11:15 PM 32.0 °F 24.8 °F 24.8 °F 75% 29.93 in 10.0 mi WSW 8.1 mph - N/A   Mostly Cloudy
11:55 PM 31.3 °F 24.7 °F 24.3 °F 75% 29.93 in 10.0 mi WSW 6.9 mph - N/A   Mostly Cloudy